| time (UTC) | temp F | wind direction | speed MPH | gust MPH | rain 1hr in | rain 24hr in | rain mn in | humidity % | barometer mb |
| 20260504043835 | 41 | 296 | 0.0 | 0.0 | 0.00 | 0.00 | 0.00 | 76 | 968.5 |
| 20260504043330 | 41 | 296 | 0.0 | 0.0 | 0.00 | 0.00 | 0.00 | 76 | 968.5 |
| 20260504042824 | 41 | 296 | 0.0 | 0.0 | 0.00 | 0.00 | 0.00 | 75 | 968.5 |
| 20260504042318 | 41 | 296 | 0.0 | 0.0 | 0.00 | 0.00 | 0.00 | 74 | 968.4 |
| 20260504042033 | 42 | 296 | 0.0 | 0.0 | 0.00 | 0.00 | 0.00 | 74 | 968.5 |
| 20260504041312 | 42 | 296 | 0.0 | 0.0 | 0.00 | 0.00 | 0.00 | 74 | 968.4 |
| 20260504040812 | 42 | 295 | 0.0 | 0.0 | 0.00 | 0.00 | 0.00 | 75 | 968.5 |
| 20260504040312 | 42 | 296 | 0.0 | 0.0 | 0.00 | 0.00 | 0.00 | 75 | 968.5 |
| 20260504035810 | 41 | 296 | 0.0 | 0.0 | 0.00 | 0.00 | 0.00 | 76 | 968.4 |
| 20260504035309 | 41 | 295 | 0.0 | 0.0 | 0.00 | 0.00 | 0.00 | 76 | 968.4 |
| 20260504034807 | 41 | 296 | 0.0 | 0.0 | 0.00 | 0.00 | 0.00 | 76 | 968.3 |
| 20260504034304 | 41 | 296 | 0.0 | 0.0 | 0.00 | 0.00 | 0.00 | 77 | 968.3 |
| 20260504033804 | 41 | 295 | 0.0 | 0.0 | 0.00 | 0.00 | 0.00 | 77 | 968.4 |
| 20260504033304 | 41 | 296 | 0.0 | 0.0 | 0.00 | 0.00 | 0.00 | 77 | 968.4 |
| 20260504032803 | 42 | 296 | 0.0 | 0.0 | 0.00 | 0.00 | 0.00 | 77 | 968.4 |
| 20260504032259 | 42 | 296 | 0.0 | 0.0 | 0.00 | 0.00 | 0.00 | 75 | 968.4 |
| 20260504031800 | 42 | 295 | 0.0 | 0.0 | 0.00 | 0.00 | 0.00 | 76 | 968.3 |
| 20260504031301 | 42 | 296 | 0.0 | 0.0 | 0.00 | 0.00 | 0.00 | 75 | 968.3 |
| 20260504030800 | 43 | 296 | 0.0 | 0.0 | 0.00 | 0.00 | 0.00 | 75 | 968.3 |
| 20260504030258 | 43 | 296 | 0.0 | 0.0 | 0.00 | 0.00 | 0.00 | 75 | 968.3 |
| 20260504025758 | 43 | 296 | 0.0 | 0.0 | 0.00 | 0.00 | 0.00 | 75 | 968.3 |
| 20260504025256 | 43 | 295 | 0.0 | 0.0 | 0.00 | 0.00 | 0.00 | 73 | 968.4 |
| 20260504025019 | 43 | 296 | 0.0 | 0.0 | 0.00 | 0.00 | 0.00 | 72 | 968.4 |
| 20260504024250 | 43 | 296 | 0.0 | 0.0 | 0.00 | 0.00 | 0.00 | 72 | 968.4 |
| 20260504023744 | 43 | 296 | 0.0 | 0.0 | 0.00 | 0.00 | 0.00 | 72 | 968.4 |
| 20260504023238 | 43 | 296 | 0.0 | 0.0 | 0.00 | 0.00 | 0.00 | 72 | 968.4 |
| 20260504022732 | 43 | 296 | 0.0 | 0.0 | 0.00 | 0.00 | 0.00 | 72 | 968.5 |
| 20260504022226 | 43 | 296 | 0.0 | 0.0 | 0.00 | 0.00 | 0.00 | 72 | 968.4 |
| 20260504021720 | 44 | 296 | 0.0 | 0.0 | 0.00 | 0.00 | 0.00 | 71 | 968.4 |
| 20260504021215 | 44 | 296 | 0.0 | 0.0 | 0.00 | 0.00 | 0.00 | 70 | 968.4 |
| 20260504020708 | 44 | 296 | 0.0 | 0.0 | 0.00 | 0.00 | 0.00 | 70 | 968.4 |
| 20260504020202 | 44 | 296 | 0.0 | 0.0 | 0.00 | 0.00 | 0.00 | 70 | 968.4 |
| 20260504015656 | 44 | 295 | 0.0 | 0.0 | 0.00 | 0.00 | 0.00 | 69 | 968.4 |
| 20260504015150 | 44 | 296 | 0.0 | 0.0 | 0.00 | 0.00 | 0.00 | 69 | 968.3 |
| 20260504014644 | 44 | 295 | 0.0 | 0.0 | 0.00 | 0.00 | 0.00 | 68 | 968.3 |
| 20260504014137 | 45 | 296 | 0.0 | 0.0 | 0.00 | 0.00 | 0.00 | 69 | 968.3 |
| 20260504013632 | 45 | 296 | 0.0 | 0.0 | 0.00 | 0.00 | 0.00 | 68 | 968.3 |
| 20260504013126 | 45 | 296 | 0.0 | 0.0 | 0.00 | 0.00 | 0.00 | 67 | 968.3 |
| 20260504012846 | 46 | 296 | 0.0 | 0.0 | 0.00 | 0.00 | 0.00 | 66 | 968.3 |
| 20260504012114 | 46 | 296 | 0.0 | 0.0 | 0.00 | 0.00 | 0.00 | 65 | 968.2 |
| 20260504011607 | 46 | 296 | 0.0 | 0.0 | 0.00 | 0.00 | 0.00 | 64 | 968.2 |
| 20260504011102 | 47 | 296 | 0.0 | 0.0 | 0.00 | 0.00 | 0.00 | 63 | 968.1 |
| 20260504010556 | 47 | 295 | 0.0 | 0.0 | 0.00 | 0.00 | 0.00 | 62 | 968.1 |
| 20260504010050 | 48 | 296 | 0.0 | 0.0 | 0.00 | 0.00 | 0.00 | 62 | 968.1 |
| 20260504005544 | 48 | 295 | 0.0 | 0.0 | 0.00 | 0.00 | 0.00 | 60 | 968.1 |
| 20260504005038 | 49 | 296 | 0.0 | 0.0 | 0.00 | 0.00 | 0.00 | 59 | 968.1 |
| 20260504004532 | 49 | 295 | 0.0 | 0.0 | 0.00 | 0.00 | 0.00 | 58 | 968.1 |
| 20260504004246 | 50 | 296 | 0.0 | 0.0 | 0.00 | 0.00 | 0.00 | 57 | 968.0 |
| 20260504003520 | 50 | 296 | 0.0 | 0.0 | 0.00 | 0.00 | 0.00 | 57 | 968.0 |
| 20260504003014 | 51 | 296 | 0.0 | 0.0 | 0.00 | 0.00 | 0.00 | 53 | 967.9 |
| 20260504002508 | 52 | 296 | 0.0 | 0.0 | 0.00 | 0.00 | 0.00 | 51 | 967.9 |
| 20260504002002 | 52 | 296 | 0.0 | 0.0 | 0.00 | 0.00 | 0.00 | 51 | 967.9 |
| 20260504001455 | 53 | 295 | 0.0 | 0.0 | 0.00 | 0.00 | 0.00 | 49 | 967.8 |
| 20260504000950 | 54 | 296 | 0.0 | 3.0 | 0.00 | 0.00 | 0.00 | 47 | 967.8 |
| 20260504000444 | 54 | 296 | 0.0 | 3.0 | 0.00 | 0.00 | 0.00 | 46 | 967.8 |
| 20260503235937 | 55 | 207 | 1.0 | 8.0 | 0.00 | 0.00 | 0.00 | 45 | 967.8 |
| 20260503235432 | 55 | 212 | 1.0 | 8.0 | 0.00 | 0.00 | 0.00 | 45 | 967.7 |
| 20260503234926 | 55 | 260 | 0.0 | 3.0 | 0.00 | 0.00 | 0.00 | 45 | 967.7 |
| 20260503234420 | 56 | 297 | 0.0 | 3.0 | 0.00 | 0.00 | 0.00 | 44 | 967.8 |
| 20260503233914 | 56 | 293 | 1.0 | 6.0 | 0.00 | 0.00 | 0.00 | 43 | 967.8 |
| 20260503233408 | 57 | 219 | 1.0 | 6.0 | 0.00 | 0.00 | 0.00 | 42 | 967.7 |
| 20260503232901 | 58 | 297 | 1.0 | 8.0 | 0.00 | 0.00 | 0.00 | 42 | 967.7 |
| 20260503232618 | 58 | 232 | 1.0 | 8.0 | 0.00 | 0.00 | 0.00 | 40 | 967.7 |
| 20260503231850 | 58 | 225 | 1.0 | 6.0 | 0.00 | 0.00 | 0.00 | 40 | 967.6 |
| 20260503231344 | 59 | 325 | 1.0 | 3.0 | 0.00 | 0.00 | 0.00 | 40 | 967.6 |
| 20260503230844 | 58 | 217 | 1.0 | 5.0 | 0.00 | 0.00 | 0.00 | 41 | 967.6 |
| 20260503230344 | 58 | 270 | 2.0 | 9.0 | 0.00 | 0.00 | 0.00 | 41 | 967.6 |
| 20260503225844 | 58 | 303 | 2.0 | 9.0 | 0.00 | 0.00 | 0.00 | 41 | 967.6 |
| 20260503225341 | 58 | 215 | 2.0 | 10.0 | 0.00 | 0.00 | 0.00 | 40 | 967.6 |
| 20260503224841 | 58 | 302 | 2.0 | 10.0 | 0.00 | 0.00 | 0.00 | 40 | 967.6 |
| 20260503224342 | 58 | 279 | 1.0 | 6.0 | 0.00 | 0.00 | 0.00 | 41 | 967.6 |
| 20260503223841 | 58 | 316 | 1.0 | 9.0 | 0.00 | 0.00 | 0.00 | 41 | 967.6 |
| 20260503223607 | 56 | 242 | 1.0 | 9.0 | 0.00 | 0.00 | 0.00 | 42 | 967.6 |
| 20260503222842 | 56 | 282 | 1.0 | 8.0 | 0.00 | 0.00 | 0.00 | 43 | 967.6 |
| 20260503222342 | 56 | 288 | 1.0 | 6.0 | 0.00 | 0.00 | 0.00 | 44 | 967.6 |
| 20260503222105 | 56 | 290 | 1.0 | 7.0 | 0.00 | 0.00 | 0.00 | 43 | 967.6 |
| 20260503221608 | 57 | 235 | 2.0 | 7.0 | 0.00 | 0.00 | 0.00 | 43 | 967.7 |
| 20260503221058 | 58 | 297 | 3.0 | 12.0 | 0.00 | 0.00 | 0.00 | 41 | 967.6 |
| 20260503220339 | 58 | 296 | 2.0 | 12.0 | 0.00 | 0.00 | 0.00 | 41 | 967.7 |
| 20260503220100 | 57 | 283 | 2.0 | 8.0 | 0.00 | 0.00 | 0.00 | 42 | 967.7 |
| 20260503215336 | 57 | 292 | 2.0 | 8.0 | 0.00 | 0.00 | 0.00 | 40 | 967.7 |
| 20260503214838 | 58 | 304 | 2.0 | 8.0 | 0.00 | 0.00 | 0.00 | 40 | 967.7 |
| 20260503214338 | 59 | 320 | 2.0 | 8.0 | 0.00 | 0.00 | 0.00 | 40 | 967.7 |
| 20260503213836 | 58 | 234 | 2.0 | 7.0 | 0.00 | 0.00 | 0.00 | 41 | 967.7 |
| 20260503213335 | 57 | 204 | 2.0 | 7.0 | 0.00 | 0.00 | 0.00 | 41 | 967.7 |
| 20260503212834 | 57 | 302 | 1.0 | 7.0 | 0.00 | 0.00 | 0.00 | 42 | 967.6 |
| 20260503212333 | 58 | 57 | 1.0 | 7.0 | 0.00 | 0.00 | 0.00 | 41 | 967.6 |
| 20260503211832 | 58 | 234 | 2.0 | 7.0 | 0.00 | 0.00 | 0.00 | 41 | 967.6 |
| 20260503211332 | 58 | 226 | 2.0 | 7.0 | 0.00 | 0.00 | 0.00 | 43 | 967.6 |
| 20260503211057 | 58 | 299 | 2.0 | 7.0 | 0.00 | 0.00 | 0.00 | 42 | 967.6 |
| 20260503210331 | 57 | 312 | 2.0 | 7.0 | 0.00 | 0.00 | 0.00 | 41 | 967.7 |
| 20260503205831 | 57 | 292 | 1.0 | 9.0 | 0.00 | 0.00 | 0.00 | 42 | 967.6 |
| 20260503205329 | 57 | 298 | 2.0 | 10.0 | 0.00 | 0.00 | 0.00 | 40 | 967.7 |
| 20260503205053 | 57 | 302 | 3.0 | 10.0 | 0.00 | 0.00 | 0.00 | 41 | 967.7 |
| 20260503204329 | 57 | 293 | 3.0 | 11.0 | 0.00 | 0.00 | 0.00 | 40 | 967.7 |
| 20260503203829 | 58 | 320 | 2.0 | 11.0 | 0.00 | 0.00 | 0.00 | 40 | 967.8 |
| 20260503203328 | 58 | 283 | 3.0 | 9.0 | 0.00 | 0.00 | 0.00 | 40 | 967.7 |
| 20260503202826 | 58 | 292 | 3.0 | 9.0 | 0.00 | 0.00 | 0.00 | 38 | 967.8 |
| 20260503202551 | 58 | 296 | 3.0 | 13.0 | 0.00 | 0.00 | 0.00 | 39 | 967.8 |
| 20260503201825 | 58 | 225 | 2.0 | 13.0 | 0.00 | 0.00 | 0.00 | 40 | 967.9 |
| 20260503201817 | 58 | 207 | 2.0 | 10.0 | 0.00 | 0.00 | 0.00 | 39 | 967.9 |
| 20260503200825 | 59 | 232 | 2.0 | 10.0 | 0.00 | 0.00 | 0.00 | 39 | 968.0 |
| 20260503200325 | 59 | 187 | 2.0 | 9.0 | 0.00 | 0.00 | 0.00 | 38 | 967.9 |
| 20260503200048 | 59 | 331 | 2.0 | 7.0 | 0.00 | 0.00 | 0.00 | 42 | 967.9 |
| 20260503195324 | 58 | 214 | 2.0 | 7.0 | 0.00 | 0.00 | 0.00 | 43 | 968.0 |
| 20260503194825 | 58 | 317 | 3.0 | 9.0 | 0.00 | 0.00 | 0.00 | 44 | 968.1 |
| 20260503194324 | 57 | 322 | 3.0 | 9.0 | 0.00 | 0.00 | 0.00 | 40 | 968.2 |
| 20260503193824 | 58 | 238 | 2.0 | 9.0 | 0.00 | 0.00 | 0.00 | 39 | 968.2 |
| 20260503193813 | 58 | 236 | 2.0 | 7.0 | 0.00 | 0.00 | 0.00 | 40 | 968.3 |
| 20260503192826 | 58 | 273 | 2.0 | 6.0 | 0.00 | 0.00 | 0.00 | 41 | 968.3 |
| 20260503192543 | 57 | 207 | 3.0 | 8.0 | 0.00 | 0.00 | 0.00 | 41 | 968.3 |
| 20260503191825 | 58 | 235 | 3.0 | 9.0 | 0.00 | 0.00 | 0.00 | 39 | 968.4 |
| 20260503191324 | 58 | 10 | 2.0 | 9.0 | 0.00 | 0.00 | 0.00 | 44 | 968.4 |
| 20260503190825 | 57 | 35 | 2.0 | 7.0 | 0.00 | 0.00 | 0.00 | 42 | 968.3 |
| 20260503190326 | 57 | 291 | 3.0 | 9.0 | 0.00 | 0.00 | 0.00 | 41 | 968.6 |
| 20260503185824 | 58 | 345 | 3.0 | 9.0 | 0.00 | 0.00 | 0.00 | 42 | 968.6 |
| 20260503185324 | 58 | 55 | 3.0 | 9.0 | 0.00 | 0.00 | 0.00 | 42 | 968.7 |
| 20260503184824 | 57 | 298 | 2.0 | 9.0 | 0.00 | 0.00 | 0.00 | 43 | 968.7 |
| 20260503184324 | 57 | 229 | 3.0 | 9.0 | 0.00 | 0.00 | 0.00 | 43 | 968.7 |
| 20260503183825 | 57 | 323 | 2.0 | 8.0 | 0.00 | 0.00 | 0.00 | 43 | 968.8 |
| 20260503183325 | 56 | 300 | 2.0 | 7.0 | 0.00 | 0.00 | 0.00 | 42 | 968.8 |
| 20260503182824 | 57 | 295 | 3.0 | 9.0 | 0.00 | 0.00 | 0.00 | 48 | 968.9 |
| 20260503182322 | 56 | 281 | 3.0 | 10.0 | 0.00 | 0.00 | 0.00 | 47 | 968.9 |
| 20260503181823 | 56 | 24 | 3.0 | 10.0 | 0.00 | 0.00 | 0.00 | 42 | 969.0 |
| 20260503181324 | 56 | 317 | 2.0 | 8.0 | 0.00 | 0.00 | 0.00 | 43 | 968.9 |
| 20260503180823 | 56 | 292 | 3.0 | 13.0 | 0.00 | 0.00 | 0.00 | 45 | 968.9 |
| 20260503180324 | 56 | 59 | 4.0 | 17.0 | 0.00 | 0.00 | 0.00 | 40 | 968.9 |
| 20260503175820 | 57 | 325 | 3.0 | 17.0 | 0.00 | 0.00 | 0.00 | 43 | 969.0 |
| 20260503175322 | 56 | 298 | 3.0 | 11.0 | 0.00 | 0.00 | 0.00 | 47 | 969.1 |
| 20260503174820 | 56 | 280 | 3.0 | 10.0 | 0.00 | 0.00 | 0.00 | 45 | 969.1 |
| 20260503174759 | 56 | 334 | 2.0 | 10.0 | 0.00 | 0.00 | 0.00 | 48 | 969.2 |
| 20260503173818 | 55 | 40 | 1.0 | 5.0 | 0.00 | 0.00 | 0.00 | 47 | 969.2 |
| 20260503173318 | 55 | 234 | 2.0 | 10.0 | 0.00 | 0.00 | 0.00 | 47 | 969.2 |
| 20260503172813 | 55 | 342 | 3.0 | 10.0 | 0.00 | 0.00 | 0.00 | 43 | 969.2 |
| 20260503172758 | 56 | 288 | 3.0 | 12.0 | 0.00 | 0.00 | 0.00 | 45 | 969.3 |
| 20260503171807 | 55 | 150 | 3.0 | 12.0 | 0.00 | 0.00 | 0.00 | 45 | 969.2 |
| 20260503171307 | 55 | 23 | 3.0 | 12.0 | 0.00 | 0.00 | 0.00 | 46 | 969.2 |
| 20260503171029 | 54 | 232 | 3.0 | 12.0 | 0.00 | 0.00 | 0.00 | 44 | 969.4 |
| 20260503170305 | 54 | 81 | 2.0 | 10.0 | 0.00 | 0.00 | 0.00 | 46 | 969.3 |
| 20260503150707 | 49 | 63 | 2.0 | 11.0 | 0.00 | 0.00 | 0.00 | 53 | 970.5 |
| 20260503150202 | 49 | 234 | 3.0 | 11.0 | 0.00 | 0.00 | 0.00 | 54 | 970.4 |
| 20260503130949 | 43 | 299 | 1.0 | 7.0 | 0.00 | 0.00 | 0.00 | 67 | 970.8 |
| 20260503130444 | 43 | 36 | 1.0 | 6.0 | 0.00 | 0.00 | 0.00 | 69 | 970.9 |
| 20260503110331 | 35 | 277 | 0.0 | 0.0 | 0.00 | 0.00 | 0.00 | 83 | 970.2 |
| 20260503081306 | 37 | 42 | 0.0 | 3.0 | 0.00 | 0.00 | 0.00 | 76 | 969.1 |
| 20260503080803 | 37 | 282 | 0.0 | 0.0 | 0.00 | 0.00 | 0.00 | 76 | 969.1 |
| 20260503080302 | 37 | 89 | 0.0 | 4.0 | 0.00 | 0.00 | 0.00 | 76 | 969.0 |
| 20260503072251 | 37 | 38 | 1.0 | 6.0 | 0.00 | 0.00 | 0.00 | 75 | 968.9 |
| 20260503071751 | 38 | 351 | 1.0 | 6.0 | 0.00 | 0.00 | 0.00 | 74 | 968.9 |
| 20260503071246 | 37 | 46 | 0.0 | 4.0 | 0.00 | 0.00 | 0.00 | 75 | 968.9 |
| 20260503071005 | 38 | 26 | 0.0 | 4.0 | 0.00 | 0.00 | 0.00 | 74 | 968.9 |
| 20260503070455 | 37 | 327 | 0.0 | 3.0 | 0.00 | 0.00 | 0.00 | 75 | 968.9 |
| 20260503070335 | 38 | 49 | 1.0 | 4.0 | 0.00 | 0.00 | 0.00 | 74 | 968.9 |
| 20260503055004 | 39 | 32 | 0.0 | 3.0 | 0.00 | 0.00 | 0.00 | 72 | 968.9 |
| 20260503054223 | 39 | 306 | 0.0 | 3.0 | 0.00 | 0.00 | 0.00 | 72 | 969.0 |
| 20260503053716 | 39 | 344 | 0.0 | 0.0 | 0.00 | 0.00 | 0.00 | 72 | 968.9 |
| 20260503053210 | 39 | 286 | 0.0 | 0.0 | 0.00 | 0.00 | 0.00 | 72 | 969.0 |
| 20260503052920 | 39 | 283 | 0.0 | 0.0 | 0.00 | 0.01 | 0.00 | 71 | 969.0 |
| 20260503052416 | 39 | 273 | 0.0 | 0.0 | 0.00 | 0.01 | 0.00 | 71 | 969.0 |
| 20260503051652 | 39 | 267 | 0.0 | 0.0 | 0.00 | 0.02 | 0.00 | 72 | 969.0 |
| 20260503051145 | 40 | 265 | 0.0 | 0.0 | 0.00 | 0.02 | 0.00 | 73 | 969.1 |
| 20260503050640 | 40 | 265 | 0.0 | 0.0 | 0.00 | 0.03 | 0.00 | 73 | 969.1 |
| 20260503050134 | 40 | 265 | 0.0 | 0.0 | 0.00 | 0.03 | 0.00 | 72 | 969.2 |
| 20260503045628 | 40 | 268 | 0.0 | 0.0 | 0.00 | 0.03 | 0.00 | 73 | 969.1 |
| 20260503045121 | 40 | 265 | 0.0 | 0.0 | 0.00 | 0.03 | 0.00 | 73 | 969.2 |
| 20260503044837 | 40 | 265 | 0.0 | 0.0 | 0.00 | 0.03 | 0.00 | 75 | 969.2 |
| 20260503044330 | 40 | 265 | 0.0 | 0.0 | 0.00 | 0.03 | 0.00 | 74 | 969.2 |